Weather History for La Porte, IN

Change the Weather History Date:

Saturday, January 19, 2013

  Actual Average (KVPZ) Record (KVPZ)
Temperature  
Mean Temperature 40 °F 23 °F  
Max Temperature 47 °F 31 °F 55 °F (2006)
Min Temperature 33 °F 16 °F -3 °F (2003)
Degree Days  
Heating Degree Days 25 42  
Month to date heating degree days 789  
Since 1 July heating degree days 3191  
Cooling Degree Days 0 0  
Month to date cooling degree days 0  
Year to date cooling degree days 0  
Moisture  
Dew Point 29 °F    
Average Humidity 66    
Maximum Humidity 77    
Minimum Humidity 48    
Precipitation  
Precipitation 0.00 in 0.06 in 0.07 in (2009)
Month to date precipitation 1.04  
Year to date precipitation 1.04  
Sea Level Pressure  
Sea Level Pressure 29.85 in    
Wind  
Wind Speed 17 mph (SW)    
Max Wind Speed 33 mph    
Max Gust Speed 46 mph    
Visibility 10 miles    
Events      
T = Trace of Precipitation, MM = Missing Value Source: NWS Daily Summary

Daily Weather History Graph

Daily Weather History Graph

Search for Another Location

Airport:

Trip Planner

Search our weather history database for the weather conditions in past years. The results will help you decide how hot, cold, wet, or windy it might be!

Date:

Astronomy

Jan. 19, 2013 Rise Set
Actual Time 7:09 AM CST 4:46 PM CST
Civil Twilight 6:38 AM CST 5:17 PM CST
Nautical Twilight 6:04 AM CST 5:51 PM CST
Astronomical Twilight 5:31 AM CST 6:24 PM CST
Moon 11:13 AM CST (1/19) 12:41 AM CST (1/19)
Length of Visible Light 10h 38m
Length of Day
9h 37m
First Quarter, 57% of the Moon is Illuminated
Jan 19
First Quarter
Jan 26
Full
Feb 3
Last Quarter
Feb 10
New
Feb 17
First Quarter

Hourly Weather History & Observations

Time (CST) Temp. Windchill Dew Point Humidity Pressure Visibility Wind Dir Wind Speed Gust Speed Precip Events Conditions
12:15 AM 36.1 °F 25.9 °F 25.7 °F 66% 29.97 in 10.0 mi SW 18.4 mph 27.6 mph N/A   Scattered Clouds
12:35 AM 35.8 °F 25.1 °F 25.9 °F 67% 29.96 in 10.0 mi SW 19.6 mph 27.6 mph N/A   Clear
12:55 AM 35.8 °F 25.7 °F 26.1 °F 68% 29.97 in 10.0 mi SW 17.3 mph 34.5 mph N/A   Scattered Clouds
1:15 AM 35.6 °F 25.2 °F 26.4 °F 69% 29.98 in 10.0 mi SW 18.4 mph 24.2 mph N/A   Scattered Clouds
1:35 AM 35.6 °F 24.8 °F 26.6 °F 70% 29.98 in 10.0 mi SW 19.6 mph 25.3 mph N/A   Scattered Clouds
1:55 AM 35.6 °F 25.2 °F 26.6 °F 70% 29.98 in 10.0 mi SW 18.4 mph 23.0 mph N/A   Scattered Clouds
2:15 AM 35.1 °F 24.5 °F 26.6 °F 71% 29.98 in 10.0 mi SW 18.4 mph 23.0 mph N/A   Scattered Clouds
2:35 AM 35.2 °F 24.7 °F 26.8 °F 71% 29.98 in 10.0 mi SW 18.4 mph 25.3 mph N/A   Scattered Clouds
2:55 AM 35.2 °F 25.0 °F 27.0 °F 72% 29.98 in 10.0 mi SW 17.3 mph 24.2 mph N/A   Scattered Clouds
3:15 AM 34.9 °F 25.7 °F 27.0 °F 73% 29.98 in 10.0 mi SW 13.8 mph 20.7 mph N/A   Scattered Clouds
3:35 AM 34.7 °F 25.9 °F 27.1 °F 74% 29.97 in 10.0 mi SW 12.7 mph - N/A   Mostly Cloudy
3:55 AM 34.7 °F 25.5 °F 27.3 °F 74% 29.97 in 10.0 mi SW 13.8 mph - N/A   Scattered Clouds
4:15 AM 34.3 °F 25.0 °F 27.3 °F 76% 29.96 in 10.0 mi SW 13.8 mph - N/A   Scattered Clouds
4:35 AM 34.3 °F 25.0 °F 27.3 °F 76% 29.96 in 10.0 mi SW 13.8 mph 19.6 mph N/A   Scattered Clouds
4:55 AM 34.0 °F 24.6 °F 27.1 °F 76% 29.96 in 10.0 mi SW 13.8 mph 20.7 mph N/A   Scattered Clouds
5:15 AM 33.8 °F 24.8 °F 27.1 °F 77% 29.96 in 10.0 mi SW 12.7 mph - N/A   Clear
5:35 AM 33.8 °F 24.8 °F 27.1 °F 77% 29.95 in 10.0 mi SW 12.7 mph 18.4 mph N/A   Scattered Clouds
5:55 AM 33.8 °F 24.8 °F 27.1 °F 77% 29.95 in 10.0 mi SW 12.7 mph - N/A   Scattered Clouds
7:15 AM 34.2 °F 26.2 °F 27.5 °F 77% 29.94 in 10.0 mi SW 10.4 mph - N/A   Clear
7:55 AM 36.0 °F 26.3 °F 28.0 °F 73% 29.94 in 10.0 mi SSW 16.1 mph 20.7 mph N/A   Clear
8:15 AM 36.7 °F 28.4 °F 28.4 °F 72% 29.94 in 10.0 mi SW 12.7 mph - N/A   Clear
8:35 AM 37.0 °F 27.4 °F 28.0 °F 70% 29.94 in 10.0 mi SW 17.3 mph 21.9 mph N/A   Clear
9:35 AM 39.6 °F 30.6 °F 28.4 °F 64% 29.93 in 10.0 mi SW 17.3 mph 23.0 mph N/A   Clear
9:55 AM 40.6 °F 32.0 °F 28.8 °F 63% 29.93 in 10.0 mi SW 17.3 mph 26.5 mph N/A   Clear
10:15 AM 41.7 °F 33.4 °F 29.1 °F 61% 29.92 in 10.0 mi SW 17.3 mph 24.2 mph N/A   Clear
10:35 AM 43.3 °F 35.0 °F 29.1 °F 57% 29.91 in 10.0 mi SW 19.6 mph 28.8 mph N/A   Clear
10:55 AM 42.8 °F 36.2 °F 29.3 °F 59% 29.89 in 10.0 mi SW 12.7 mph 25.3 mph N/A   Clear
11:15 AM 42.6 °F 34.0 °F 29.5 °F 60% 29.88 in 10.0 mi SW 19.6 mph 26.5 mph N/A   Clear
11:35 AM 46.0 °F 39.6 °F 30.6 °F 55% 29.85 in 10.0 mi SSW 15.0 mph 21.9 mph N/A   Clear
11:55 AM 46.2 °F 39.0 °F 30.2 °F 54% 29.85 in 10.0 mi WSW 18.4 mph 26.5 mph N/A   Clear
12:15 PM 46.8 °F - 30.6 °F 53% 29.82 in 10.0 mi SW 23.0 mph 33.4 mph N/A   Clear
12:35 PM 46.4 °F 38.5 °F 30.6 °F 54% 29.81 in 10.0 mi SW 21.9 mph 32.2 mph N/A   Clear
12:55 PM 47.5 °F - 31.1 °F 53% 29.81 in 10.0 mi WSW 26.5 mph 33.4 mph N/A   Clear
1:35 PM 45.5 °F 37.3 °F 31.1 °F 57% 29.79 in 10.0 mi SW 21.9 mph 25.3 mph N/A   Clear
1:55 PM 45.5 °F 37.6 °F 31.5 °F 58% 29.78 in 10.0 mi SW 20.7 mph 25.3 mph N/A   Clear
2:15 PM 45.5 °F 38.3 °F 31.8 °F 59% 29.78 in 10.0 mi SW 17.3 mph 25.3 mph N/A   Clear
2:35 PM 45.1 °F 38.1 °F 31.8 °F 60% 29.78 in 10.0 mi WSW 16.1 mph 25.3 mph N/A   Mostly Cloudy
2:55 PM 45.0 °F 38.5 °F 32.0 °F 60% 29.78 in 10.0 mi SW 13.8 mph 25.3 mph N/A   Overcast
3:15 PM 45.3 °F 39.0 °F 32.2 °F 60% 29.75 in 10.0 mi SSW 13.8 mph 20.7 mph N/A   Mostly Cloudy
3:35 PM 45.5 °F 37.6 °F 32.0 °F 59% 29.76 in 10.0 mi SW 20.7 mph 33.4 mph N/A   Scattered Clouds
3:55 PM 45.5 °F 37.6 °F 32.2 °F 60% 29.76 in 10.0 mi SW 20.7 mph 27.6 mph N/A   Scattered Clouds
4:15 PM 45.5 °F 38.1 °F 32.4 °F 60% 29.76 in 10.0 mi SW 18.4 mph 26.5 mph N/A   Clear
4:35 PM 44.6 °F 38.1 °F 32.4 °F 62% 29.76 in 10.0 mi SW 13.8 mph - N/A   Clear
4:55 PM 43.2 °F 36.2 °F 32.2 °F 65% 29.76 in 10.0 mi SW 13.8 mph - N/A   Clear
5:15 PM 42.6 °F 35.9 °F 32.2 °F 67% 29.76 in 10.0 mi SW 12.7 mph - N/A   Clear
5:35 PM 42.1 °F 35.2 °F 32.4 °F 68% 29.77 in 10.0 mi SW 12.7 mph - N/A   Clear
5:55 PM 42.1 °F 34.9 °F 32.7 °F 69% 29.77 in 10.0 mi SW 13.8 mph 19.6 mph N/A   Clear
6:15 PM 42.1 °F 34.9 °F 33.1 °F 70% 29.78 in 10.0 mi WSW 13.8 mph - N/A   Clear
6:35 PM 41.2 °F 33.7 °F 33.3 °F 73% 29.77 in 10.0 mi WSW 13.8 mph - N/A   Clear
6:55 PM 41.0 °F 34.3 °F 33.3 °F 74% 29.77 in 10.0 mi SW 11.5 mph 17.3 mph N/A   Clear
7:15 PM 40.5 °F 32.8 °F 33.3 °F 75% 29.76 in 10.0 mi WSW 13.8 mph 18.4 mph N/A   Clear
7:35 PM 40.3 °F 33.0 °F 33.1 °F 75% 29.76 in 10.0 mi WSW 12.7 mph - N/A   Clear
7:55 PM 40.3 °F 32.2 °F 32.9 °F 75% 29.76 in 10.0 mi WSW 15.0 mph 20.7 mph N/A   Clear
8:15 PM 41.0 °F 33.1 °F 32.4 °F 71% 29.76 in 10.0 mi WSW 15.0 mph 21.9 mph N/A   Scattered Clouds
8:35 PM 42.1 °F 33.9 °F 32.0 °F 67% 29.76 in 10.0 mi West 17.3 mph 21.9 mph N/A   Mostly Cloudy
8:55 PM 41.9 °F 34.0 °F 32.0 °F 68% 29.76 in 10.0 mi West 16.1 mph 23.0 mph N/A   Mostly Cloudy
9:15 PM 41.4 °F 32.7 °F 31.3 °F 67% 29.76 in 10.0 mi West 18.4 mph 27.6 mph N/A   Scattered Clouds
9:35 PM 41.5 °F 30.6 °F 30.2 °F 64% 29.77 in 10.0 mi West 29.9 mph 46.0 mph N/A   Scattered Clouds
9:55 PM 41.2 °F 32.1 °F 29.1 °F 62% 29.78 in 10.0 mi West 19.6 mph 38.0 mph N/A   Scattered Clouds
10:15 PM 40.3 °F 29.7 °F 28.2 °F 62% 29.78 in 10.0 mi West 25.3 mph 32.2 mph N/A   Scattered Clouds
10:35 PM 39.7 °F 27.6 °F 25.7 °F 57% 29.78 in 10.0 mi West 33.4 mph 46.0 mph N/A   Scattered Clouds
10:55 PM 38.8 °F 28.0 °F 23.4 °F 54% 29.79 in 10.0 mi West 24.2 mph 41.4 mph N/A   Scattered Clouds
11:15 PM 38.3 °F 26.8 °F 26.1 °F 61% 29.79 in 10.0 mi West 26.5 mph 35.7 mph N/A   Scattered Clouds
11:35 PM 37.4 °F 25.6 °F 23.2 °F 57% 29.79 in 10.0 mi West 26.5 mph 42.6 mph N/A   Mostly Cloudy
11:55 PM 35.6 °F 24.5 °F 17.4 °F 48% 29.82 in 10.0 mi WNW 20.7 mph 39.1 mph N/A   Scattered Clouds